Location: Kellogg
(38.0159°N, 90.0546°W)
Time: 02:36:11
(UTC+00:00)

Transit 2A - Pass Details

Date: 13 September 2024
Orbit: 590 x 960 km, 66.7° (Epoch: 09 October)

Event Time Altitude Azimuth Distance (km) Brightness Sun altitude
Rises 11:07:55 0° 321° (NW) 3,607 9.2 -7.2°
Reaches altitude 10° 11:10:50 10° 311° (NW) 2,624 8.4 -6.7°
Maximum altitude 11:15:59 29° 254° (WSW) 1,547 7.1 -5.7°
Drops below altitude 10° 11:20:48 10° 195° (SSW) 2,428 8.4 -4.7°
Sets 11:23:25 0° 184° (S) 3,294 9.2 -4.2°
